This is the latest recevied weather packets stored in our database for station/object N2MLB-WX. If no packets are shown the sender has not sent any weather packets the latest 10 day(s).
| Time | Temp. | Humidity | Pressure | Rain* | Wind** | Luminosity | Snow |
|---|---|---|---|---|---|---|---|
| 1777954944 | 16.67° C | 77% | 999 hPa | 1.27 mm | - | 0 W/m² | - |
| 1777954639 | 16.11° C | 78% | 999 hPa | 1.78 mm | - | 0 W/m² | - |
| 1777954342 | 16.67° C | 77% | 999 hPa | 2.03 mm | - | 0 W/m² | - |
| 1777954041 | 16.67° C | 77% | 999 hPa | 2.79 mm | - | 0 W/m² | - |
| 1777953740 | 15.56° C | 79% | 999 hPa | 4.32 mm | - | 0 W/m² | - |
| 1777953440 | 15.56° C | 81% | 999 hPa | 7.11 mm | - | 0 W/m² | - |
| 1777953142 | 16.67° C | 72% | 999 hPa | 25.65 mm | - | 0 W/m² | - |
| 1777952840 | 17.78° C | 64% | 999 hPa | 0 mm | - | 0 W/m² | - |
| 1777952544 | 17.78° C | 64% | 999 hPa | 0 mm | - | 0 W/m² | - |
| 1777952241 | 17.78° C | 64% | 999 hPa | 0 mm | - | 0 W/m² | - |
| 1777951942 | 17.22° C | 64% | 999 hPa | 0 mm | - | 0 W/m² | - |
| 1777951641 | 17.78° C | 64% | 999 hPa | 0 mm | - | 0 W/m² | - |
| 1777951341 | 17.22° C | 66% | 999 hPa | 0 mm | - | 0 W/m² | - |
| 1777951040 | 17.22° C | 67% | 999 hPa | 0 mm | - | 0 W/m² | - |
| 1777950740 | 17.22° C | 66% | 999 hPa | 0 mm | - | 0 W/m² | - |
| 1777950440 | 17.78° C | 65% | 999 hPa | 0 mm | - | 0 W/m² | - |
| 1777950140 | 17.22° C | 65% | 999 hPa | 0 mm | - | 0 W/m² | - |
| 1777949840 | 17.22° C | 66% | 999 hPa | 0 mm | - | 0 W/m² | - |
| 1777949540 | 17.78° C | 62% | 999 hPa | 0 mm | - | 0 W/m² | - |
| 1777949239 | 18.89° C | 55% | 999 hPa | 0 mm | - | 0 W/m² | - |
| 1777948940 | 18.33° C | 55% | 999 hPa | 0 mm | - | 0 W/m² | - |
| 1777948640 | 18.89° C | 54% | 999 hPa | 0 mm | - | 0 W/m² | - |
| 1777948339 | 18.89° C | 54% | 999 hPa | 0 mm | - | 0 W/m² | - |
| 1777948043 | 18.89° C | 54% | 999 hPa | 0 mm | - | 0 W/m² | - |
| 1777947740 | 18.89° C | 54% | 999 hPa | 0 mm | - | 0 W/m² | - |
* Rain latest hour (hover to see other rain measurements)
** Current wind speed in m/s (hover to see current wind gust speed)